Location: *
(41.0526°S, 175.9489°E)
Time: 07:33:48
(UTC+00:00)

Daily predictions for brighter satellites

Satellite Brightness Start Highest point End
(mag) Time Altitude Azimuth Time Altitude Azimuth Time Altitude Azimuth
Cosmos 2278 Rocket 4.1 14:05:11 24° S 14:05:11 24° S 14:07:27 10° SSE
ATLAS CENTAUR R/B 4.1 14:02:18 10° SW 14:11:45 42° SSE 14:11:46 42° SSE
Cosmos 2369 Rocket 4.2 14:18:38 21° E 14:18:38 21° E 14:22:20 10° SE
Cosmos 1943 Rocket 3.6 14:20:42 34° SE 14:20:42 34° SE 14:23:56 10° SSE
CZ-2C R/B 4.5 14:48:41 18° S 14:48:41 18° S 14:49:57 10° S
ARIANE 5 R/B 3.4 14:52:57 46° SE 14:52:57 46° SE 14:57:14 10° S
Cosmos 1727 Rocket 4.1 15:05:00 64° NE 15:05:44 70° E 15:11:59 10° SSE
Cosmos 1153 Rocket 4.5 15:07:04 10° S 15:13:22 78° E 15:14:55 53° NNE
ATLAS 2AS CENTAUR R/B 3.4 15:14:46 35° NNE 15:16:40 44° ENE 15:22:50 10° SE
Cosmos 1666 4.5 15:19:07 29° E 15:19:07 29° E 15:22:05 10° SSE
Envisat 3.9 15:15:15 10° NE 15:20:08 48° ESE 15:25:05 10° S
Cosmos 1818 4.4 15:17:20 10° SSW 15:22:37 49° SE 15:27:52 10° NE
Lacrosse 5 4.3 15:19:52 10° SSW 15:23:27 18° SSE 15:27:01 10° ESE
Okean 3 Rocket 4.2 15:30:25 51° S 15:30:25 51° S 15:33:54 10° S
NOSS 3-4 (A) 4.5 15:27:56 43° W 15:29:45 49° SW 15:37:27 10° SSE
NOSS 3-4 (C) 4.5 15:28:01 43° W 15:29:49 49° SW 15:37:33 10° SSE
Cosmos 1656 Rocket 3.6 15:29:06 65° NNE 15:29:49 75° ENE 15:35:20 10° SSE
Cosmos 1408 Rocket 4.0 15:32:14 56° ENE 15:32:36 58° E 15:36:59 10° SSE
Cosmos 1900 4.2 15:34:35 77° SSW 15:34:35 77° SSW 15:39:15 10° SSE
CZ-2D R/B 4.1 15:38:27 51° SSW 15:38:27 51° SSW 15:41:47 10° SSW
Cosmos 192 4.3 15:32:35 10° SSW 15:37:36 82° ESE 15:42:35 10° NNE
CZ-2C R/B 3.6 15:36:27 10° NNE 15:41:26 56° ESE 15:46:14 10° S
Cosmos 1500 4.3 15:44:38 35° S 15:44:38 35° S 15:46:58 10° S
SL-16 R/B 2.4 15:37:22 10° S 15:43:36 71° WSW 15:45:17 49° NW
YAOGAN 11 4.1 15:40:47 10° SSE 15:45:12 80° ENE 15:45:44 67° N
RESURS DK-1 2.3 15:45:53 80° E 15:45:53 80° E 15:49:57 10° SSE
Cosmos 1867 4.3 15:45:07 28° N 15:47:35 48° ENE 15:52:46 10° SE
Cosmos 1331 Rocket 3.9 15:42:44 10° SSW 15:48:00 67° WNW 15:49:41 42° N
Meteor 1-19 Rocket 4.4 15:45:05 10° S 15:51:03 77° E 15:56:47 10° NNE
Okean 1 3.8 15:47:12 10° S 15:51:14 60° E 15:55:14 10° NNE
SL-4 R/B 2.4 15:52:19 51° SSW 15:52:19 51° SSW 15:55:54 10° SE
Cosmos 1544 3.6 15:55:38 44° NE 15:56:28 58° E 16:00:05 10° SSE
UNK 4.1 15:52:34 10° S 15:56:44 44° WSW 15:56:44 44° WSW
Cosmos 1459 Rocket 3.9 15:51:19 10° S 15:57:32 84° W 16:03:47 10° N
Genesis I 3.0 15:57:34 72° SSW 15:57:56 86° SE 16:01:46 10° NNE
Cosmos 1110 Rocket 4.2 15:53:27 10° SSW 15:58:37 48° WNW 15:58:40 48° WNW
Cosmos 389 Rocket 3.9 16:01:03 27° SSW 16:01:03 27° SSW 16:02:53 10° S
Cosmos 2369 Rocket 2.4 16:00:27 44° WNW 16:01:45 54° WSW 16:07:19 10° SSE
ATLAS 3B R/B 4.3 15:55:58 10° SSW 16:01:47 31° SE 16:07:24 10° ENE
Cosmos 1943 Rocket 3.7 16:02:14 20° SW 16:02:33 20° SW 16:06:44 10° S
Cosmos 1269 Rocket 4.3 15:59:32 22° N 16:03:00 68° ENE 16:08:18 10° SSE
Cosmos 1802 Rocket 4.1 15:56:46 10° S 16:03:17 86° E 16:09:44 10° N
CZ-2C R/B 3.2 16:02:28 10° NNE 16:06:27 66° ESE 16:10:31 10° S
ISS -1.8 16:06:54 21° SSW 16:07:05 21° SSW 16:09:47 10° SSE
Cosmos 1515 Rocket 3.5 16:04:28 10° SSW 16:08:49 59° W 16:10:23 36° NNW
Cosmos 1805 Rocket 4.0 16:06:58 10° N 16:11:16 61° E 16:15:37 10° SSE
Spot 4 Rocket 4.0 16:08:21 10° N 16:13:25 59° WNW 16:18:35 10° SSW
Cosmos 1725 Rocket 4.1 16:07:59 10° S 16:14:18 80° E 16:20:36 10° N
Cosmos 1315 Rocket 4.3 16:18:05 22° SW 16:18:05 22° SW 16:20:23 10° SSW
H-2A R/B 2.6 16:15:32 10° N 16:19:18 71° WNW 16:23:09 10° SSW
USA 215 3.9 16:13:22 10° SE 16:19:49 52° NE 16:25:54 11° NNW
Meteor 1-27 Rocket 4.4 16:17:11 10° SSW 16:22:01 31° W 16:23:04 29° WNW
Cosmos 2123 Rocket 4.0 16:16:49 10° NNW 16:23:09 73° W 16:29:36 10° S
Elektron 1 4.0 16:24:46 43° WNW 16:25:34 60° SW 16:28:31 10° SSE
CZ-4B R/B 3.6 16:21:04 10° NNE 16:26:17 85° ESE 16:31:27 10° SSW
Cosmos 2173 Rocket 4.2 16:21:33 10° SSW 16:27:39 47° W 16:33:37 10° NNW
ARIANE 5 R/B 4.1 16:33:16 17° WSW 16:33:16 17° WSW 16:35:14 10° SW
Cosmos 1743 Rocket 3.6 16:29:32 19° NNW 16:32:28 56° W 16:36:49 10° S
Meteor 1-18 Rocket 4.3 16:26:55 10° SSW 16:32:57 81° W 16:38:52 10° N
H-2A R/B 4.2 16:29:18 10° NE 16:33:48 30° ESE 16:38:14 10° S
CZ-2C R/B 2.6 16:32:42 20° NNW 16:34:30 28° NNE 16:38:02 10° ENE
Cosmos 1378 3.5 16:33:59 10° SSW 16:37:30 41° W 16:40:58 10° NNW
Cosmos 1939 Rocket 4.2 16:34:30 10° NE 16:38:10 41° ESE 16:41:53 10° S
Cosmos 1500 Rocket 4.1 16:38:16 20° NW 16:40:57 40° WSW 16:45:11 10° S
PSLV R/B 3.8 16:38:19 10° N 16:42:21 43° W 16:46:25 10° SSW
Helios 1A 3.5 16:41:39 10° S 16:45:37 39° WSW 16:48:35 16° NW
Sich 1 3.0 16:45:25 10° NNW 16:49:40 59° W 16:54:01 10° S
Cosmos 1992 Rocket 4.0 16:45:27 10° SSW 16:50:46 86° WNW 16:56:01 10° NNE
SL-27 R/B 4.2 16:48:34 10° S 16:51:46 35° ESE 16:54:58 10° NE
Cosmos 1833 4.3 16:47:00 10° SSW 16:52:29 53° WNW 16:57:55 10° N
Cosmos 1707 Rocket 4.1 16:48:47 10° S 16:53:19 66° E 16:57:46 10° NNE
Cosmos 1666 4.3 16:53:48 16° W 16:54:11 16° WSW 16:56:37 10° SSW
COSMOS 2487 1.9 16:55:08 10° SSW 16:58:07 85° WNW 17:01:02 10° NNE
Meteor 1-31 Rocket 3.1 16:54:32 10° NNE 16:58:26 71° ESE 17:02:25 10° S
Envisat 4.2 16:55:39 10° NW 16:59:23 20° W 17:03:08 10° SW
SJ-12 4.3 16:55:33 10° N 16:59:31 43° W 17:03:32 10° SSW
Landsat 4 3.6 16:56:25 10° N 17:00:10 76° WNW 17:04:00 10° SSW
Cosmos 2061 Rocket 4.3 16:58:50 10° SSW 17:04:55 45° W 17:10:53 10° NNW
Cosmos 2251 Rocket 4.0 17:01:38 10° N 17:06:51 66° ENE 17:12:09 10° SSE
Lacrosse 5 2.6 17:02:19 10° SW 17:07:26 57° SE 17:12:28 10° ENE
ATLAS 2AS CENTAUR R/B 3.2 17:02:13 13° WNW 17:07:35 38° SW 17:13:48 10° SSE
GPS 2-04 Rocket1 4.0 17:06:11 13° WNW 17:08:49 24° NNW 17:11:57 10° NE
Cosmos 2297 Rocket 4.4 17:06:16 10° S 17:11:09 28° SE 17:16:01 10° ENE
SJ-7 4.4 17:16:23 10° N 17:20:35 76° WNW 17:24:46 10° SSW
CZ-2C R/B 4.4 17:18:29 10° NW 17:21:35 16° W 17:24:39 10° SW
GP-B 3.4 17:18:04 10° S 17:22:26 49° W 17:26:44 10° NNW
CZ-4C R/B 2.4 17:17:06 10° SSW 17:22:29 62° SE 17:26:56 10° NE
BREEZE-M DEB (TANK) 4.2 17:22:03 10° SW 17:23:32 14° SSW 17:24:48 10° SSE
SL-16 R/B 4.3 17:23:49 10° SSW 17:26:03 12° SW 17:28:16 10° WSW
Meteor 2-4 Rocket 4.5 17:21:12 10° SSW 17:26:28 33° W 17:31:42 10° NNW
Cosmos 1743 2.7 17:23:29 10° N 17:27:22 78° W 17:31:19 10° S
Cosmos 1536 2.8 17:24:44 10° N 17:28:46 79° W 17:32:52 10° S
